Location: Hlohovi?ky
(49.8934°N, 13.6739°E)
Time: 01:05:11
(UTC+00:00)

Cosmos 1766 - Pass Details

Date: 19 May 2025
Orbit: 443 x 457 km, 82.5° (Epoch: 15 June)

Event Time Altitude Azimuth Distance (km) Brightness Sun altitude
Rises 21:27:08 0° 357° (N) 2,464 8.0 -17.1°
Reaches altitude 10° 21:29:20 10° 6° (N) 1,584 6.6 -17.2°
Maximum altitude 21:32:32 35° 74° (ENE) 739 3.9 -17.4°
Enters shadow 21:33:14 32° 102° (ESE) 797 3.8 -17.4°
